CAPE
141 521 968 658 990 1324 1432 1421 1292 1234 1300 1353 1349 1513 1696 1709 1657 1537 1612 1705 1582 1637 1708 2123 1893 1844 1657 1636 1767 1858 1807 1194 1192 1260 1700 1241 1317 958 906 839 878 983 1284
219 606 1042 1292 1369 1463 1619 1433 1297 1212 1501 1384 1337 1415 1670 1766 1422 1232 1277 1221 1533 2039 1902 1897 1708 1543 1826 1467 1537 1772 1712 1744 1588 1446 1375 1161 941 895 1078 873 851 1418 1254
300 535 830 1420 1508 1409 1467 1399 1501 1742 1424 1724 1733 1794 1620 1355 1324 1398 1210 997 1195 1885 1700 1593 1911 1947 1514 1644 1324 1161 1084 1296 1732 1682 981 847 784 726 1345 672 899 1151 1107
302 504 581 1408 1505 1656 1561 1461 1208 1258 1823 1539 1926 1978 1891 1640 1708 1313 1451 1822 1272 1412 1705 1829 1158 1546 1590 1418 1667 1292 670 487 899 1270 1137 712 169 1550 992 639 1256 1211 1242
366 589 1145 1392 1250 1085 1297 1528 1550 1552 1739 1736 1812 1711 1451 777 282 354 813 1147 1017 1490 1438 1187 1349 1405 1450 1349 1084 789 926 970 1137 1527 1206 771 260 677 415 1156 786 1344 1213
390 521 914 1058 1469 1607 1580 1394 1643 1859 1211 859 830 665 482 1273 1407 844 669 1104 1332 1616 1631 1621 1484 1305 1195 1084 985 906 802 937 1251 1562 1295 312 16 113 676 1502 1400 496 654
198 249 923 1619 1762 1424 1533 1895 1671 1927 1829 839 716 730 1781 2238 1148 1232 1862 1939 1568 1666 1549 1540 1367 1056 889 836 792 795 743 888 1007 1208 1152 186 77 36 638 1075 1382 624 3
107 346 953 1286 1763 1619 1712 1567 1881 1953 1253 821 576 706 1399 1480 1768 1329 882 1180 1280 1178 1184 1035 827 883 1012 899 609 410 199 299 527 779 1203 660 351 259 338 1050 1392 753 401
23 219 980 1190 1624 1847 1826 1844 2156 2225 1977 1132 608 216 218 254 414 589 1031 1131 1032 974 1012 1055 1107 1147 1059 816 715 397 55 53 475 651 1263 871 659 628 594 527 721 810 1190
4 164 741 1087 1086 827 1630 1800 1820 1416 1068 768 1000 999 835 943 942 952 774 804 871 790 889 1046 1227 1334 1260 996 612 522 233 235 173 371 1417 1231 736 969 868 839 1160 1252 1018
100 325 494 1184 1257 1160 950 1071 831 752 817 1058 1451 1470 1453 1755 1618 1601 1297 555 882 1052 1147 1258 1102 935 997 1074 1263 1116 1227 760 682 858 1176 920 856 1291 1100 1010 1091 1444 1480
671 787 607 612 1133 1222 450 676 947 924 1310 1752 1643 1755 1632 1903 1608 1595 365 1363 1174 1267 1453 1356 1042 1142 697 1527 1631 1489 1515 1461 1058 905 286 941 903 1201 1062 1003 1160 1211 1237
614 831 703 835 1135 1234 309 998 1174 1303 1640 1917 1560 2041 1571 1928 1955 1460 702 1285 1725 1703 1897 1537 1673 1404 1732 1569 1250 926 1283 1012 1022 1037 1246 1101 1213 1133 1093 927 989 1178 1252
832 762 610 1106 932 1263 875 713 837 818 1002 1349 1691 1111 1287 1560 1752 1985 1372 1827 1870 1926 1710 867 1152 1054 804 519 941 840 895 902 895 1018 1013 1600 1064 1149 1004 1025 839 1043 1328
900 847 541 1171 920 1113 1774 1486 1392 750 639 981 699 884 1033 1278 1755 1534 1589 1770 1680 1410 924 487 533 700 506 435 725 61 22 34 230 681 810 1367 1193 1130 1051 1222 1018 827 1039
775 831 832 1098 1312 1240 1620 2123 1767 1303 1136 481 235 955 1442 1624 1931 1530 1673 1698 1378 888 506 1019 1466 995 862 651 236 260 110 71 21 48 535 1149 1313 897 1375 1358 1252 932 841
626 912 818 876 1313 1355 1394 1790 1909 1781 809 413 334 779 1739 1942 2099 1695 2108 1756 850 593 1018 1718 1613 968 857 562 692 60 14 26 0 1 0 0 137 1402 1525 1449 1368 1016 894
808 926 951 792 825 1100 1170 1368 1313 1137 590 515 887 1324 1897 1871 1903 1652 1694 1804 267 849 1070 1095 726 824 724 480 431 94 0 0 0 0 2 18 0 0 433 1085 1428 1123 859
1374 1247 1451 1204 922 916 1232 1139 1113 784 709 1149 1432 1631 2063 1751 1720 1145 1314 1668 396 1047 1243 1402 1427 1324 288 171 185 0 0 0 0 0 0 0 0 50 203 178 837 1081 861
1446 1393 1567 1714 1523 1443 1437 1384 1388 927 1013 1424 1342 1239 1162 1658 1348 1590 1034 1701 1167 1217 2001 1337 1968 1738 167 77 9 0 0 0 0 3 8 0 0 0 7 7 222 330 311
1177 1742 1568 1762 1927 1952 1730 1667 1466 1405 1361 1265 1154 1507 2435 1820 1756 1719 1299 1443 1567 1706 1629 2272 2183 1187 143 27 0 0 0 4 20 0 4 7 0 47 0 0 356 0 0
1319 1543 1884 1855 2251 1853 2023 1808 1763 1391 1190 1070 1143 1558 1505 1712 1807 1961 1680 1647 1617 1789 1999 1801 1897 1064 254 0 1 2 57 0 0 0 35 0 4 0 0 0 0 0 20
1149 1501 1844 1963 2073 2161 2032 1982 1609 2037 1262 1495 1399 1674 1935 1875 2149 2326 2204 2473 2402 2578 2016 1962 1625 944 35 3 119 42 92 1 20 88 14 0 0 2 0 4 0 0 0
918 1452 1793 2113 2337 2595 1913 2227 1590 1269 1508 1214 1266 1489 1270 2014 2061 2242 2392 2551 2993 2782 2467 1778 1439 698 29 1 26 116 18 66 40 56 6 0 0 0 0 0 0 0 0
630 1139 1393 2185 2243 2445 2448 1980 1954 1727 1577 1341 1461 1326 1880 2292 2257 2339 2579 2685 2699 3160 2696 1858 1036 287 88 136 164 47 76 11 0 0 0 0 0 0 0 0 0 0 0
560 724 1266 1927 2120 2282 2614 1927 2186 1940 1428 1796 1373 1612 2089 1893 2530 2380 2650 2923 3171 2980 2173 1483 562 524 210 407 278 473 135 0 0 0 0 0 0 0 0 0 0 0 0
CIN
-37 -0 -0 -7 -3 -0 -1 -0 -1 -1 -0 -0 -1 -0 -2 -1 -1 -0 -0 -0 -2 -1 -0 -0 -0 -0 -0 -0 -0 -0 -9 -29 -37 -29 -7 -27 -13 -9 -5 -5 -8 -9 -0
-25 -0 -0 -0 -0 -1 -0 -2 -3 -2 -1 -2 -0 -0 -0 -1 -4 -4 -6 -5 -1 -0 -0 -0 -0 -0 -0 -0 -0 -2 -15 -7 -8 -6 -3 -12 -36 -24 -6 -5 -5 -0 -0
-25 -7 -0 -0 -0 -1 -0 -2 -0 -0 -1 -0 -1 -0 -0 -2 -3 -2 -3 -9 -1 -0 -0 -0 -0 -0 -0 -1 -10 -33 -39 -37 -12 -13 -10 -3 -27 -47 -9 -18 -18 -1 -0
-21 -0 -2 -1 -1 -0 -0 -0 -3 -2 -0 -1 -0 -0 -0 -0 -0 -1 -0 -0 -0 -0 -0 -0 -1 -0 -0 -14 -4 -32 -50 -60 -51 -28 -16 -34 -49 -25 -26 -25 -4 -2 -0
-8 -2 -5 -1 -5 -5 -2 -0 -0 -0 -0 -0 -0 -0 -5 -35 -102 -88 -20 -0 -8 -0 -0 -16 -7 -0 -1 -5 -30 -62 -55 -58 -53 -39 -12 -31 -66 -66 -71 -14 -15 -1 -4
-2 -12 -15 -7 -0 -0 -0 -2 -0 -0 -10 -32 -35 -49 -74 -5 -0 -27 -37 -4 -0 -0 -0 -0 -5 -14 -15 -17 -38 -61 -70 -61 -53 -43 -8 -45 -115 -140 -60 -9 -2 -47 -28
-3 -45 -9 -0 -0 -3 -2 -0 -1 -0 -0 -44 -58 -58 -0 -0 -17 -13 -1 -0 -0 -0 -3 -2 -11 -33 -38 -49 -52 -61 -79 -73 -57 -29 -17 -48 -87 -176 -79 -38 -13 -52 -126
-18 -23 -11 -6 -0 -1 -0 -3 -0 -0 -18 -60 -99 -81 -26 -20 -3 -22 -57 -26 -23 -33 -28 -39 -59 -56 -47 -53 -75 -105 -109 -93 -72 -44 -23 -63 -89 -105 -111 -49 -19 -48 -93
-37 -47 -6 -9 -0 -0 -0 -0 -0 -0 -2 -55 -98 -147 -145 -141 -115 -106 -62 -52 -66 -72 -59 -50 -49 -50 -54 -64 -82 -110 -147 -147 -101 -64 -28 -72 -103 -93 -105 -95 -74 -54 -14
-64 -44 -11 -14 -17 -34 -2 -4 -10 -29 -46 -70 -65 -71 -75 -69 -59 -62 -63 -58 -63 -72 -68 -62 -49 -44 -40 -55 -75 -89 -115 -125 -83 -40 -3 -64 -90 -89 -89 -82 -60 -43 -42
-36 -13 -26 -8 -10 -10 -39 -49 -68 -73 -60 -58 -52 -33 -46 -25 -28 -23 -21 -48 -50 -47 -43 -24 -16 -22 -49 -33 -28 -46 -58 -71 -27 -30 -28 -40 -66 -62 -72 -77 -68 -42 -26
-6 -6 -9 -15 -6 -8 -44 -67 -43 -48 -42 -22 -16 -9 -27 -11 -23 -10 -178 -50 -38 -42 -43 -29 -52 -46 -72 -27 -9 -28 -37 -14 -21 -49 -138 -57 -47 -63 -62 -68 -70 -63 -53
-9 -9 -8 -9 -2 -6 -52 -31 -12 -12 -10 -5 -14 -10 -12 -11 -7 -38 -72 -49 -35 -31 -10 -16 -23 -32 -14 -11 -10 -36 -6 -8 -14 -7 -13 -47 -66 -51 -55 -65 -63 -57 -54
-16 -4 -6 -4 -16 -1 -9 -19 -4 -3 -3 -9 -12 -16 -16 -9 -4 -3 -17 -13 -15 -11 -9 -5 -15 -5 -4 -11 -11 -12 -5 -14 -9 -19 -14 -23 -32 -37 -37 -47 -52 -61 -47
-15 -5 -15 -11 -20 -10 -6 -11 -4 -4 -6 -11 -15 -20 -11 -10 -3 -11 -16 -9 -10 -10 -13 -19 -22 -24 -13 -19 -6 -44 -99 -112 -31 -12 -19 -25 -15 -21 -27 -36 -44 -49 -47
-2 -6 -13 -19 -28 -32 -15 -12 -9 -8 -7 -11 -48 -17 -13 -7 -10 -13 -13 -11 -11 -17 -21 -22 -10 -12 -7 -4 -17 -18 -60 -100 -165 -148 -17 -10 -13 -32 -34 -34 -35 -39 -40
-17 -6 -22 -44 -39 -44 -37 -22 -18 -3 -19 -43 -40 -2 -10 -7 -7 -19 -20 -19 -17 -16 -22 -15 -13 -10 -6 -30 -17 -94 -69 -139 -0 -13 -0 -0 -67 -20 -16 -15 -31 -26 -39
-15 -10 -14 -39 -74 -76 -75 -52 -48 -36 -55 -40 -2 -5 -17 -13 -10 -20 -14 -7 -37 -15 -3 -2 -23 -24 -44 -55 -42 -76 -0 -0 -0 -0 -15 -156 -0 -0 -24 -18 -27 -25 -25
-7 -12 -5 -14 -49 -77 -52 -58 -53 -72 -69 -26 -3 -15 -8 -4 -7 -18 -9 -15 -44 -18 -2 -11 -22 -23 -89 -92 -67 -0 -0 -0 -0 -0 -0 -0 -0 -93 -26 -42 -15 -19 -19
-4 -23 -9 -2 -5 -28 -34 -36 -29 -69 -55 -16 -10 -7 -16 -4 -6 -1 -16 -3 -16 -13 -7 -19 -15 -11 -86 -90 -26 -0 -0 -0 -0 -18 -57 -0 -0 -0 -21 -27 -27 -20 -10
-30 -18 -39 -15 -10 -11 -22 -42 -47 -33 -19 -13 -12 -3 -5 -4 -2 -2 -8 -5 -12 -5 -6 -6 -10 -38 -98 -174 -0 -0 -0 -95 -75 -0 -22 -49 -0 -51 -0 -0 -6 -0 -0
-49 -51 -40 -39 -15 -44 -25 -34 -19 -36 -19 -14 -6 -2 -6 -9 -8 -3 -17 -20 -4 -9 -3 -19 -33 -72 -117 -46 -61 -41 -139 -0 -0 -0 -96 -0 -21 -0 -0 -0 -0 -0 -52
-83 -83 -79 -71 -58 -59 -44 -27 -34 -5 -22 -12 -5 -7 -14 -19 -12 -2 -5 -2 -4 -8 -9 -14 -31 -68 -165 -119 -135 -196 -124 -35 -107 -131 -125 -0 -0 -9 -0 -4 -0 -0 -0
-115 -82 -77 -72 -53 -48 -72 -23 -63 -78 -49 -61 -47 -22 -56 -20 -22 -15 -15 -10 -1 -1 -6 -16 -57 -110 -219 -96 -182 -97 -194 -140 -180 -190 -18 -0 -0 -0 -0 -0 -0 -0 -0
-156 -135 -133 -81 -77 -62 -66 -83 -63 -73 -81 -94 -65 -69 -33 -24 -29 -25 -16 -10 -7 -3 -4 -43 -83 -147 -190 -128 -97 -141 -148 -202 -0 -0 -0 -0 -0 -0 -0 -0 -0 -0 -0
-166 -179 -171 -147 -142 -117 -82 -124 -93 -99 -136 -84 -99 -61 -42 -43 -18 -30 -13 -1 -3 -8 -27 -67 -129 -128 -177 -118 -126 -59 -113 -0 -0 -0 -0 -0 -0 -0 -0 -0 -0 -0 -0
Wind_Speed
21 17 21 5 4 4 5 3 3 1 0 3 7 8 8 12 14 17 18 20 26 25 24 23 23 22 21 21 20 20 21 23 24 24 24 23 21 18 16 20 20 21 21
28 28 30 28 6 15 5 1 2 1 2 6 7 8 7 9 13 16 16 18 20 15 20 22 22 22 22 22 21 20 23 23 22 23 24 24 24 22 22 17 21 21 21
30 32 32 30 1 9 5 0 7 3 4 2 5 7 12 16 15 16 19 20 20 16 20 23 23 23 22 22 22 20 21 21 21 20 20 21 22 22 21 21 21 22 21
32 32 31 30 22 1 7 10 9 3 2 4 10 14 14 17 19 20 18 21 19 18 20 21 20 21 21 22 21 21 18 17 17 16 17 18 20 21 20 21 21 21 21
28 29 29 27 18 21 25 21 13 7 8 15 19 19 18 19 19 20 20 19 19 20 19 17 19 20 19 20 20 19 15 13 12 12 13 20 19 19 19 19 20 20 19
28 26 28 26 24 27 21 3 14 23 19 21 21 21 22 21 19 20 21 21 20 20 19 18 17 17 16 12 18 14 13 13 13 13 15 17 19 18 18 17 17 17 17
27 27 28 21 17 19 22 26 22 18 24 25 25 24 23 23 21 21 20 20 21 20 19 18 17 16 15 14 17 12 13 13 12 14 16 15 17 18 17 16 15 15 15
27 26 27 23 19 21 24 26 23 22 20 22 23 23 24 23 23 23 23 22 22 21 20 18 17 15 16 17 18 13 15 15 15 15 13 13 15 16 16 15 14 13 13
27 25 26 25 23 22 23 24 20 22 22 22 24 25 24 24 24 24 23 22 21 20 18 17 15 14 13 12 15 18 19 16 13 14 13 13 13 13 14 13 12 12 11
25 25 23 24 24 24 24 21 18 20 22 25 25 23 22 22 22 22 21 18 17 16 15 14 13 13 11 11 13 18 21 22 16 5 11 11 11 11 13 12 11 10 10
23 24 23 25 24 22 20 21 24 24 24 23 21 20 19 20 20 20 17 15 13 13 12 12 6 7 8 9 9 4 21 21 24 21 16 13 12 11 13 12 10 10 8
27 25 23 22 24 22 23 24 24 22 21 20 17 18 17 19 20 19 8 11 11 11 11 15 18 11 12 10 9 10 15 13 6 15 15 7 8 10 14 12 9 8 7
27 26 25 23 24 24 20 23 22 21 21 19 15 12 13 20 19 19 15 11 12 11 13 15 14 13 11 7 8 9 9 15 10 9 9 4 5 12 14 14 11 8 7
28 26 26 24 26 24 23 23 22 21 21 20 20 16 16 13 19 15 12 11 14 14 15 13 19 8 12 10 9 7 6 7 7 8 5 5 5 6 10 13 12 10 10
29 27 26 22 25 24 22 21 19 19 20 18 18 18 15 13 13 12 12 10 11 21 18 11 15 13 13 5 13 11 5 5 4 4 5 10 4 5 4 6 6 5 6
27 24 24 23 25 25 24 21 20 21 17 19 16 16 15 14 13 12 10 11 15 22 18 13 12 12 10 12 10 14 13 9 10 18 16 8 3 5 1 3 5 6 8
25 26 24 24 24 25 25 24 22 21 20 18 17 16 14 14 13 14 13 11 21 19 13 11 10 24 14 27 21 8 27 27 26 25 18 11 9 4 4 6 7 9 10
23 25 24 24 23 23 25 24 24 21 20 18 17 14 14 14 14 14 10 14 16 14 13 20 26 27 25 19 15 24 21 19 17 14 13 22 24 25 21 10 9 11 13
22 23 24 22 21 20 22 23 21 21 19 20 17 13 14 14 14 13 12 17 18 12 16 23 25 24 22 16 21 23 17 18 17 22 20 20 16 15 19 25 17 16 17
21 22 24 24 21 19 19 21 21 19 18 18 17 11 12 13 12 12 11 14 16 10 19 21 19 19 19 23 26 21 18 10 16 17 23 23 26 25 26 28 24 22 27
22 22 23 24 22 19 19 18 20 20 16 16 16 14 13 12 12 11 9 9 10 10 15 17 18 25 25 26 28 29 25 23 19 30 31 26 25 23 29 27 27 27 29
22 23 23 24 23 22 22 22 18 18 18 16 15 14 12 11 10 8 7 6 9 13 14 16 18 21 25 30 26 28 27 24 29 33 28 25 24 28 32 30 31 31 26
23 22 22 23 23 22 23 21 23 21 20 18 16 13 12 11 10 7 5 5 9 12 16 18 20 21 25 26 23 22 26 26 30 27 30 31 32 29 28 29 30 29 27
21 21 21 21 22 22 24 22 20 21 20 18 17 13 11 9 7 9 13 12 7 4 4 3 19 20 22 25 25 26 26 24 27 29 28 30 32 36 34 35 34 30 29
21 21 21 21 22 22 23 25 21 21 20 19 15 15 11 8 8 9 6 5 7 4 6 10 13 17 24 27 27 27 28 28 30 33 35 37 33 31 33 33 36 31 27
22 22 22 22 22 23 22 24 24 19 21 17 16 13 7 6 5 5 3 4 4 4 6 11 14 16 20 25 25 25 29 29 29 31 32 35 36 35 35 34 30 32 33
Wind_Direction
169 171 163 179 165 171 172 62 162 155 149 20 23 21 12 24 26 33 37 44 83 81 72 59 60 53 48 44 41 40 47 65 74 73 72 69 54 32 16 98 104 52 61
137 141 130 146 179 174 185 133 178 173 17 20 12 11 351 359 14 29 25 35 46 19 46 55 59 55 55 52 49 42 70 86 85 85 88 85 79 74 63 11 52 72 72
131 125 129 142 137 188 190 34 191 214 4 330 350 354 15 32 27 28 40 44 47 24 48 62 64 59 53 51 52 47 106 102 104 103 98 88 80 69 68 58 64 82 89
120 120 117 111 82 245 198 190 195 245 266 338 14 27 26 37 45 44 33 50 37 39 45 53 46 48 55 58 47 52 128 135 124 135 128 115 68 76 73 82 85 96 94
118 102 107 100 72 115 144 158 185 207 12 35 48 44 41 42 41 45 48 42 43 44 43 38 38 44 42 62 48 84 149 187 197 199 172 92 66 77 78 88 96 97 111
107 97 105 96 90 105 75 349 48 70 49 61 61 59 60 55 46 48 51 48 46 48 46 38 31 30 9 304 16 142 168 187 220 162 135 71 63 72 75 76 73 73 83
99 100 104 82 70 72 78 95 71 47 74 76 81 76 65 62 54 50 47 46 50 50 52 45 40 18 328 290 12 196 208 211 198 210 143 57 58 67 69 70 70 65 76
102 99 103 89 76 79 86 97 77 70 55 63 69 74 79 72 68 67 65 64 60 60 61 63 70 97 298 301 338 202 228 223 253 237 87 62 89 63 58 62 64 62 67
104 99 105 100 91 88 86 90 68 74 68 69 82 97 102 97 94 90 90 94 89 84 83 92 110 124 141 191 357 326 324 213 210 217 46 66 73 56 49 51 53 53 60
105 110 100 104 104 104 100 83 67 73 82 108 112 118 119 115 105 103 109 109 106 108 114 129 134 125 125 162 196 240 285 278 10 89 5 50 43 52 40 35 36 39 43
108 114 109 120 114 100 88 96 113 118 121 129 129 126 135 132 118 110 116 121 136 123 131 127 217 188 135 174 169 111 272 279 310 347 5 22 22 38 22 19 23 19 25
132 124 116 111 127 114 111 118 125 127 135 145 163 150 159 143 125 54 242 181 146 127 114 91 76 121 110 113 119 139 229 203 233 15 353 15 43 24 8 11 8 10 8
141 140 135 123 131 135 107 137 142 137 148 162 191 207 189 101 108 76 118 143 150 136 100 90 103 103 112 146 129 141 170 251 211 67 58 109 46 3 358 360 355 350 349
148 137 136 126 147 150 141 158 164 171 161 159 153 170 167 165 90 110 137 134 124 118 96 101 80 107 100 115 124 135 163 172 201 208 92 143 82 45 15 360 356 348 336
149 138 140 122 148 179 191 198 199 197 186 159 154 145 176 187 162 150 156 158 156 70 83 110 92 101 89 127 82 83 106 214 130 106 53 29 64 38 35 21 20 10 355
150 133 135 136 151 176 183 198 203 201 206 210 214 131 138 171 164 166 184 147 105 45 80 109 102 93 91 84 77 66 61 69 52 22 23 39 51 13 257 3 3 360 349
147 153 141 145 149 164 175 186 196 197 186 188 176 138 121 143 120 136 141 132 57 65 105 104 104 21 355 12 40 65 8 357 1 3 19 36 27 19 2 353 348 348 344
143 156 149 154 148 152 167 173 183 182 197 192 178 135 116 117 116 128 146 85 72 85 90 47 15 12 28 45 48 26 28 29 30 34 28 5 350 342 350 2 354 343 343
143 147 154 151 146 146 159 169 168 189 186 201 189 69 117 121 107 113 119 62 56 100 60 22 16 24 32 40 28 23 28 26 28 17 20 16 17 10 359 346 351 344 339
143 147 158 160 152 148 150 164 177 173 172 177 181 121 126 121 114 106 113 68 56 97 36 28 34 34 31 21 13 18 16 22 22 20 8 5 360 354 350 342 344 341 331
151 151 158 164 159 150 155 154 171 178 161 165 173 159 113 112 120 98 97 85 76 70 39 28 25 10 13 9 6 6 11 12 18 353 347 356 357 357 347 346 344 338 333
156 158 158 165 164 163 167 174 165 166 171 162 162 156 141 135 135 130 96 61 42 20 22 15 8 8 4 354 2 3 6 14 355 351 358 357 358 346 343 339 336 333 334
160 160 161 165 167 166 172 169 183 183 184 181 161 130 130 138 138 123 89 83 17 9 1 358 358 0 360 -0 4 5 359 355 351 354 346 347 344 347 344 338 336 336 334
161 160 161 163 166 167 172 173 168 172 173 170 170 154 157 149 138 159 181 184 170 146 127 92 356 3 4 358 355 355 354 353 349 346 347 345 340 338 340 339 338 339 337
163 161 163 164 167 168 169 176 167 170 170 175 160 168 163 125 134 149 149 156 179 96 34 24 10 3 355 352 351 349 349 346 344 342 340 337 343 345 342 342 335 335 338
166 165 164 165 169 171 170 175 180 169 177 168 169 165 110 129 126 152 142 161 46 41 28 11 3 1 357 353 351 350 345 347 348 345 343 338 337 340 339 338 337 335 331